カタログに戻る

STARLINK-5226

運用中通信VLEO
NORAD 54056·PAYLOAD·🇺🇸 United States

打ち上げ Oct 20, 2022 から Cape Canaveral Space Force Station

Loading…

次のパス (今後24時間)

TLE

最新Source: CelesTrak SupGP

元期: Sep 14, 2026, 21:01 UTC

1 54056C 22136F   26257.87618056 -.00004307  00000+0 -12319-3 0  2578
2 54056  53.1584 205.8122 0001250  94.9050 290.8380 15.35409621    10

AllMySatでSTARLINK-5226をリアルタイム追跡

Download on the App Store